[Iaude] MPEC B03: 2013 ES89 [a=2.66,e=0.57,i=9.9,H=19.1]

mpec at mpcdb1.cfa.harvard.edu mpec at mpcdb1.cfa.harvard.edu
Wed Jan 16 07:11:16 EST 2019


M.P.E.C. 2019-B03                                Issued 2019 Jan. 16, 12:06 UT
 
     The Minor Planet Electronic Circulars contain information on unusual
         minor planets and routine data on comets.  They are published
    on behalf of Division F of the International Astronomical Union by the
          Minor Planet Center, Smithsonian Astrophysical Observatory,
                          Cambridge, MA 02138, U.S.A.

             Prepared using the Tamkin Foundation Computer Network

                              MPC at CFA.HARVARD.EDU
            URL https://www.minorplanetcenter.net/    ISSN 1523-6714


                                   2013 ES89
 
                           Revision to MPEC 2013-F02
 
Additional Observations:
     K13E89S  C2017 01 28.37652409 04 53.469+24 15 40.44         23.1 GVEB003F51
     K13E89S  C2017 01 28.38882509 04 52.491+24 15 42.53         22.4 GVEB003F51
     K13E89S  C2017 01 28.40107309 04 51.517+24 15 45.25         22.7 GVEB003F51
     K13E89S  C2017 01 28.41323509 04 50.530+24 15 47.65         23.0 GVEB003F51
     K13E89S  C2017 01 28.53272209 04 41.068+24 16 12.00         22.7 GVEB003F51
     K13E89S  C2017 02 18.24034108 36 50.514+25 01 50.38         22.6 GVEB003F51
 
Observer details:
F51 Pan-STARRS 1, Haleakala.  Observers J. Bulger, K. Chambers, T. Lowe,
    E. Magnier, A. Schultz, M. Willman.  Measurers S. Chastel, M. Huber,
    Y. Ramanjooloo, R. Wainscoat, R. Weryk.  1.8-m Ritchey-Chretien + CCD.
 
First and last observations above in comparison with prediction:
Residuals in seconds of arc, reference and Delta-T
170128 F51 13.4-  6.2+    170218 F51 13.0-  5.2+    MPO272426   +0.015 day
 
Orbital elements:
2013 ES89                                                Earth MOID = 0.2188 AU
Epoch 2019 Apr. 27.0 TT = JDT 2458600.5                 MPC
M 127.86406              (2000.0)            P               Q
n   0.22743827     Peri.  277.96077     -0.23942028     +0.96876098
a   2.6580329      Node   337.86014     -0.80947017     -0.23593648
e   0.5715208      Incl.    9.87822     -0.53613055     -0.07639460
P   4.33           H   19.1           G   0.15           U   0
Residuals in seconds of arc
130313 703  0.3+  1.1-    130325 807  0.1-  0.1+    130511 807  0.0   0.0
130313 703 (1.5+  0.6+)   130325 807  0.0   0.2+    130511 807  0.0   0.1+
130313 703  0.4-  0.3-    130325 807  0.0   0.2+    130519 807  0.1-  0.1+
130313 703  0.2-  1.4+    130325 807  0.1-  0.1+    130519 807  0.1-  0.1+
130313 F51  0.0   0.1+    130330 H21  0.0   0.7-    130519 807  0.1-  0.1+
130313 F51  0.0   0.1+    130330 H21  0.2-  0.4-    130519 807  0.1-  0.1+
130313 F51  0.0   0.1+    130330 H21  0.1-  0.3-    130519 807  0.0   0.0
130313 F51  0.0   0.1+    130330 H21  0.3-  0.4-    130529 807  0.0   0.1+
130314 807  0.1+  0.1-    130331 204  0.4-  1.1-    130529 807  0.0   0.0
130314 807  0.1+  0.2-    130331 204  0.2-  0.1+    130529 807  0.0   0.1+
130314 807  0.2+  0.2-    130331 691  0.1-  0.2-    130529 807  0.1-  0.2+
130314 807  0.1+  0.3-    130331 691  1.0-  0.5-    130529 807  0.1-  0.1+
130314 807  0.0   0.1+    130331 691 (1.4+  2.0+)   130611 807  0.0   0.1+
130314 H21  0.1+  0.3-    130401 E12  0.1-  0.2-    130611 807  0.1-  0.0
130314 H21  0.0   0.2-    130401 E12  0.2+  0.3+    130611 807  0.3+  0.4+
130314 H36  0.1+  0.0     130403 H21  0.1+  0.1-    130611 807  0.0   0.1+
130314 H21  0.1-  0.2-    130403 H21  0.2-  0.2-    130611 807  0.0   0.1+
130314 H36  0.4+  0.6-    130403 H21  0.0   0.2-    130620 807  0.0   0.1-
130314 H36  0.9+  0.0     130403 448  0.6-  0.4-    130620 807  0.0   0.1-
130315 I93  0.2+  0.0     130403 H21  0.1-  0.1-    130620 807  0.1+  0.1-
130315 I93  0.3-  0.2-    130403 448  0.6-  0.0     130620 807  0.1+  0.1-
130315 I93  0.0   0.5+    130403 H21  0.1-  0.1-    130620 807  0.1-  0.0
130315 H01  0.2-  0.4+    130403 448  0.1+  0.4-    130703 D90  0.2+  1.0+
130315 H01  0.2-  0.3+    130403 448  0.5-  0.5-    130703 D90  0.1-  0.2-
130315 H01  0.1-  0.5+    130411 807  0.4-  0.3-    130703 D90 (1.5+  5.6-)
130315 H01  0.2-  0.0     130411 807  0.3-  0.2+    130703 807  0.0   0.1+
130315 474  0.2+  0.0     130411 807  0.3-  0.6+    130703 807  0.1-  0.2+
130315 474  0.2+  0.2+    130411 807  0.2+  0.2-    130703 807  0.0   0.2+
130315 474  0.0   0.1+    130421 807  0.2-  0.0     130703 807  0.1-  0.1+
130315 474  0.0   0.1-    130421 807  0.3-  0.2-    130703 807  0.0   0.1+
130315 474  0.3+  0.0     130421 807  0.1-  0.1-    130712 807  0.4+  0.3-
130316 807  0.2-  0.0     130421 807  0.2-  0.1-    130712 807  0.7+  0.4-
130316 807  0.1-  0.1-    130421 807  0.1-  0.1-    130712 807  0.5+  0.5-
130316 807  0.0   0.3-    130425 D90  0.0   0.3-    130712 807  0.1+  0.3-
130316 807  0.1-  0.1-    130425 D90  0.3-  0.1-    130804 807  0.0   0.3-
130316 807  0.2-  0.1-    130425 D90  0.0   0.3-    130804 807  0.0   0.2-
130317 807  0.0   0.1-    130425 D90  0.2-  0.2-    130804 807  0.0   0.1-
130317 807  0.0   0.2-    130504 807  0.1-  0.1-    130804 807  0.1-  0.1-
130317 807  0.0   0.3-    130504 807  0.0   0.0     130804 807  0.0   0.1-
130317 807  0.1-  0.2-    130504 807  0.1-  0.0     130814 807  0.0   0.1+
130317 807  0.0   0.2-    130504 807  0.2-  0.0     130814 807  0.3-  0.1+
130317 291  0.2+  0.3+    130504 807  0.1-  0.0     130814 807  0.3-  0.4+
130317 291  0.3+  0.3+    130506 E12  0.1+  0.1-    130814 807  0.2-  0.5+
130317 291  0.0   0.3+    130506 E12  0.3-  0.2-    130814 807  0.1-  0.2+
130318 291  0.1+  0.1+    130506 E12  0.3-  0.1-    130826 807  0.3-  0.2+
130318 291  0.4+  0.3-    130506 E12  0.1+  0.2-    130826 807  0.1+  0.2-
130318 291  0.3+  0.4+    130507 E12  0.1-  0.0     130826 807  0.2-  0.3-
130319 474  0.1+  0.2+    130507 E12  0.1+  0.0     130826 807  0.0   0.1-
130319 474  0.3+  0.9+    130507 E12  0.0   0.0     131006 474  0.1+  0.4+
130319 474  1.1+  0.0     130507 E12  0.0   0.1-    131006 474  0.5-  1.4+
130320 291  0.1+  0.3+    130508 E12  0.0   0.1+    170128 F51  0.1+  0.3+
130320 291  0.4+  0.4+    130508 E12  0.1+  0.2+    170128 F51  0.0   0.2-
130320 291  0.3+  0.2+    130508 E12  0.1+  0.1+    170128 F51  0.0   0.1-
130322 711  0.4+  0.1+    130508 E12  0.2+  0.1+    170128 F51  0.3-  0.2-
130322 711  0.2+  0.0     130511 807  0.0   0.0     170128 F51  0.2+  0.0
130322 711  0.7+  0.2-    130511 807  0.1-  0.1+    170218 F51  0.1-  0.1-
130325 807  0.2-  0.2+    130511 807  0.1-  0.1+

Ephemeris:
2013 ES89                a,e,i = 2.66, 0.57, 10                  q = 1.1389
Date    TT    R. A. (2000) Decl.     Delta      r     Elong.  Phase     V
2018 12 17    01 42 46.0 +22 45 57   2.8524  3.5276   126.5    13.0    24.9
...
2019 01 01    01 42 09.2 +22 00 19   3.1064  3.5822   111.3    14.8    25.2
...
2019 01 09    01 43 41.8 +21 46 33   3.2513  3.6102   103.5    15.4    25.3
...
2019 01 15    01 45 36.8 +21 40 58   3.3624  3.6308    97.9    15.6    25.4
2019 01 16    01 45 59.5 +21 40 25   3.3810  3.6341    97.0    15.6    25.4
2019 01 17    01 46 23.2 +21 39 58   3.3997  3.6375    96.1    15.6    25.4
...
2019 01 23    01 49 04.5 +21 39 27   3.5119  3.6575    90.6    15.6    25.5
...
2019 01 31    01 53 27.3 +21 44 05   3.6612  3.6835    83.6    15.4    25.6
...
2019 02 15    02 03 46.6 +22 07 08   3.9341  3.7304    70.9    14.5    25.7

A. U. Tomatic                (C) Copyright 2019 MPC           M.P.E.C. 2019-B03



More information about the Iaude mailing list